Weather History for CWMT - October, 2013

Change the Weather History Date:

Wednesday, October 16, 2013

  Actual Average Record
Temperature  
Mean Temperature 38 °F -  
Max Temperature 42 °F - - ()
Min Temperature 33 °F - - ()
Degree Days  
Heating Degree Days 28    
Moisture  
Dew Point 35 °F    
Average Humidity 86    
Maximum Humidity 94    
Minimum Humidity 71    
Precipitation  
Precipitation 0.00 in - - ()
Sea Level Pressure  
Sea Level Pressure 30.00 in    
Wind  
Wind Speed 5 mph ()    
Max Wind Speed 12 mph    
Max Gust Speed 20 mph    
T = Trace of Precipitation, MM = Missing Value Source: Averaged Metar Reports

Daily Weather History Graph

Daily Weather History Graph

Search for Another Location

Airport or City:

Trip Planner

Search our weather history database for the weather conditions in past years. The results will help you decide how hot, cold, wet, or windy it might be!

Date:

Astronomy

Oct. 16, 2013 Rise Set
Actual Time 8:40 AM MDT 6:27 PM MDT
Civil Twilight 7:53 AM MDT 7:14 PM MDT
Nautical Twilight 6:59 AM MDT 8:07 PM MDT
Astronomical Twilight 6:05 AM MDT 9:01 PM MDT
Moon 5:38 PM MDT (10/16) 5:34 AM MDT (10/16)
Length of Visible Light 11h 21m
Length of Day
9h 47m
Waxing Gibbous, 94% of the Moon is Illuminated
Oct 16
Waxing Gibbous
Oct 18
Full
Oct 26
Last Quarter
Nov 3
New
Nov 9
First Quarter

Hourly Weather History & Observations

Time (MDT) Temp. Windchill Dew Point Humidity Pressure Visibility Wind Dir Wind Speed Gust Speed Precip Events Conditions
12:00 AM 39.4 °F 34.5 °F 35.2 °F 85% 30.00 in - NW 6.9 mph - N/A   Unknown
1:00 AM 39.0 °F 34.0 °F 35.1 °F 86% 30.01 in - NW 6.9 mph - N/A   Unknown
2:00 AM 38.5 °F 33.4 °F 34.0 °F 84% 30.01 in - NNW 6.9 mph - N/A   Unknown
3:00 AM 37.9 °F 33.5 °F 34.0 °F 86% 30.02 in - NNW 5.8 mph - N/A   Unknown
4:00 AM 37.0 °F 33.3 °F 35.4 °F 94% 30.02 in - NW 4.6 mph - N/A   Unknown
5:00 AM 36.5 °F 32.7 °F 34.7 °F 93% 30.02 in - NW 4.6 mph - N/A   Unknown
6:00 AM 37 °F - 35 °F 92% 30.02 in - WNW 4.6 mph - -  
6:00 AM 37.2 °F 33.6 °F 35.4 °F 93% 30.02 in - WNW 4.6 mph - N/A   Unknown
7:00 AM 33.3 °F 28.9 °F 31.8 °F 94% 30.02 in - West 4.6 mph - N/A   Unknown
8:00 AM 34.2 °F 30.0 °F 31.5 °F 90% 30.01 in - WSW 4.6 mph - N/A   Unknown
9:00 AM 35.4 °F 31.5 °F 33.3 °F 92% 30.00 in - WSW 4.6 mph - N/A   Unknown
10:00 AM 34.7 °F 30.6 °F 31.3 °F 87% 30.00 in - WSW 4.6 mph - N/A   Unknown
11:00 AM 35.2 °F 31.2 °F 33.4 °F 93% 29.99 in - WSW 4.6 mph - N/A   Unknown
12:00 PM 36 °F - 34 °F 87% 29.98 in - WSW 5.8 mph - -  
12:00 PM 36.1 °F 31.4 °F 33.6 °F 91% 29.98 in - WSW 5.8 mph - N/A   Unknown
1:00 PM 38.7 °F 34.3 °F 33.4 °F 81% 29.97 in - WSW 5.8 mph - N/A   Unknown
2:00 PM 39.9 °F 35.1 °F 32.9 °F 76% 29.98 in - West 6.9 mph - N/A   Unknown
3:00 PM 40.3 °F 37.1 °F 34.0 °F 78% 29.99 in - NW 4.6 mph - N/A   Unknown
4:00 PM 41.0 °F 38.0 °F 34.5 °F 78% 29.98 in - West 4.6 mph - N/A   Unknown
5:00 PM 41.0 °F 37.1 °F 34.3 °F 77% 29.99 in - West 5.8 mph - N/A   Unknown
6:00 PM 42 °F - 36 °F 71% 29.99 in - WNW 6.9 mph - -  
6:00 PM 41.5 °F 37.1 °F 35.8 °F 80% 29.99 in - WNW 6.9 mph - N/A   Unknown
7:00 PM 39.7 °F 34.9 °F 35.8 °F 86% 29.99 in - West 6.9 mph - N/A   Unknown
8:00 PM 41.4 °F 34.7 °F 37.0 °F 85% 29.99 in - NW 11.5 mph 19.6 mph N/A   Unknown
9:00 PM 40.8 °F 34.1 °F 38.3 °F 91% 29.99 in - NW 11.5 mph 18.4 mph N/A   Unknown
10:00 PM 40.6 °F 35.4 °F 38.7 °F 93% 30.00 in - NW 8.1 mph - N/A   Unknown
11:00 PM 41.0 °F 35.8 °F 37.8 °F 88% 30.01 in - NW 8.1 mph - N/A   Unknown